THOR ABLESTAR DEB, 538

Orbit data source: Space-Track

THOR ABLESTAR DEB, 538 is space debris in LEO originally from a launch on Thu, 29 Jun 1961 UTC launched from the Air Force Eastern Test Range (AFETR). Debris objects in space refer to the collection of defunct objects orbiting the Earth. Examples of debris include non-operational satellites, rocket bodies, and fragments generated from explosions, collisions, or faulty payload assembly.

Loading next visibility...
Identifier
538, 1961-015FX
Orbit
LEO
Country
Flag of USUS
Related business
Manufacturer
Unknown
Mission
Spacecraft
Bus & Motor
Unknown
Mass
Unknown
Launch date (UTC)
1961-06-29 (65 years ago)
Launch vehicle
Unknown
Launch site
Air Force Eastern Test Range (AFETR)
Object type
Payload
Rocket body
Debris
Shape & HBR
Unknown shape, 0.1 m
Radar Cross Section
Small (<0.1 m²)

Expand to show TLE details & history
Last TLE update: 18 hours ago

TLE from 18 hours ago
0 THOR ABLESTAR DEB
1   538U 61015FX  26127.22824822  .00003888  00000-0  73632-3 0  9998
2   538  67.8040  69.8372 0012118 280.9393  79.0369 14.65241714357605
Epoch: 2026-05-07T05:28Z
TLE epoch observation values (Epoch: 2026-05-07T05:28:40.646Z)
Latitude
0.00003°
Longitude
122.59046°
Altitude
676.911 km
Speed
7.52 km/s
True Right ascension
04h 39m 20s
True Declination
0° 00' 00"
Sunlit
Object was in daylight at epoch
Visualization orbit readout
Latitude
Unknown
Longitude
Unknown
Altitude
Unknown
Speed
Unknown
Apparent Right ascension
Unknown
Apparent Declination
Unknown
Sunlit
N/A
Visualization observer readout
Local Sidereal Time
07:33:03
Azimuth
Unknown
Elevation
Unknown
Doppler factor
Unknown
Orbital elements
Apogee altitude
683.065 km
Perigee altitude
665.973 km
Semi-major axis
7,052.656 km
Eccentricity
0.00121
Inclination
67.804°
RAAN
69.8372°
Arg. of periapsis
280.9393°
True anomaly
79.17327°
Mean anomaly
79.0369°
Eccentric anomaly
79.10508°
Mean motion
3.66449 °/min
Orbital period
98.24 mins
BSTAR
0.00073632
Loading maneuver chart data...
Computing Atmospheric mass density...

Documentation

Showing up to 5 results
|